Home > Weather > Karachi > Past weeks

Flag for Pakistan Past Weather in Karachi, Sindh, Pakistan — Yesterday and Last 2 Weeks

Now
88 °F

Broken clouds.


Feels Like: 96 °F
Forecast: 82 / 86 °F
Wind: 12 mph from Southwest

Location: Karachi Airport

Current Time: Jul 30, 2016 at 10:34:53 AM

Latest Report: Jul 30, 2016 at 9:55 AM


Visibility: 4 mi

Pressure: 29.59 "Hg

Humidity: 62%

Dew Point: 73 °F

Location of KarachiLocation

Past Weather in Karachi — Graph

°F

Karachi Temperature Yesterday

Maximum temperature yesterday: 91 °F (at 10:55 AM)
Minimum temperature yesterday: 82 °F (at 3:55 AM)
Average temperature yesterday: 86 °F

High & Low Weather Summary for the Past Weeks

 TemperatureHumidityPressure
High95 °F (Jul 25, 12:25 PM)89% (Jul 18, 3:55 AM)29.74 "Hg (Jul 18, 3:55 AM)
Low81 °F (Jul 18, 3:55 AM)47% (Jul 17, 12:25 PM)29.47 "Hg (Jul 15, 5:25 PM)
Average86 °F67%29.59 "Hg
* Reported Jul 15 8:25 AM — Jul 30 8:55 AM, Karachi, Weather by CustomWeather, © 2016

Note: Actual official high and low records may vary slightly from our data, if they occured in-between our weather recording intervals... More about our weather records

Advertising

Karachi Weather History for the Previous 24 Hours

Scroll right to see more
 ConditionsComfort  
Time TempWeatherWind HumidityBarometerVisibility
8:55 AM
Sat, Jul 30
86 °FBroken clouds.14 mph62%29.56 "Hg4 mi
8:25 AM86 °FBroken clouds.12 mph66%29.74 "Hg4 mi
7:55 AM84 °FBroken clouds.15 mph74%29.56 "Hg4 mi
7:25 AM84 °FBroken clouds.14 mph70%29.56 "Hg4 mi
6:55 AM82 °FBroken clouds.17 mph74%29.56 "Hg4 mi
6:25 AM82 °FBroken clouds.17 mph74%29.56 "Hg4 mi
5:55 AM82 °FPassing clouds.17 mph74%29.56 "Hg4 mi
4:55 AM82 °FPassing clouds.16 mph74%29.53 "Hg4 mi
3:55 AM82 °FPassing clouds.12 mph74%29.53 "Hg4 mi
2:55 AM82 °FPartly cloudy.15 mph74%29.56 "Hg4 mi
2:25 AM82 °FPartly cloudy.17 mph79%29.56 "Hg4 mi
1:55 AM84 °FPartly cloudy.12 mph70%29.56 "Hg4 mi
12:55 AM84 °FPartly cloudy.14 mph70%29.59 "Hg4 mi
12:25 AM84 °FPartly cloudy.15 mph70%29.59 "Hg4 mi
11:55 PM
Fri, Jul 29
84 °FPassing clouds.14 mph70%29.59 "Hg4 mi
10:55 PM84 °FPassing clouds.14 mph70%29.59 "Hg4 mi
10:25 PM84 °FPassing clouds.12 mph70%29.59 "Hg4 mi
9:55 PM84 °FPassing clouds.15 mph70%29.62 "Hg4 mi
7:55 PM84 °FPassing clouds.14 mph70%29.59 "Hg4 mi
7:25 PM84 °FPassing clouds.15 mph70%29.56 "Hg4 mi
6:55 PM86 °FPartly sunny.15 mph66%29.56 "Hg4 mi
5:55 PM88 °FPartly sunny.16 mph62%29.53 "Hg4 mi
3:55 PM90 °FPartly sunny.23 mph59%29.56 "Hg4 mi
3:25 PM90 °FPartly sunny.18 mph59%29.56 "Hg4 mi
2:55 PM90 °FPartly sunny.20 mph63%29.56 "Hg4 mi
2:25 PM90 °FPartly sunny.17 mph63%29.56 "Hg4 mi
1:55 PM90 °FPartly sunny.16 mph59%29.59 "Hg4 mi
1:25 PM90 °FPartly sunny.16 mph63%29.59 "Hg4 mi
12:55 PM90 °FPartly sunny.16 mph63%29.59 "Hg4 mi
12:25 PM91 °FPartly sunny.12 mph56%29.62 "Hg4 mi
11:55 AM91 °FPartly sunny.20 mph52%29.62 "Hg4 mi
11:25 AM91 °FPartly sunny.22 mph56%29.62 "Hg4 mi
10:55 AM91 °FPartly sunny.18 mph56%29.62 "Hg4 mi
10:25 AM90 °FPartly sunny.17 mph59%29.62 "Hg4 mi
Weather by CustomWeather, © 2016

See weather overviewHow to use our weather pages